Lexington Weather

Lexington, Massachusetts, USA

34°F
4/16/2021 10:05am 
  • Lexington Conditions: Snow, Fog, Overcast
  • Temperature: 33.8°F / 1.0°CColder 1.1°F than last hour.
  • Dew Point: 32.5°FDecreased 1.1°Fsince last hour.
  • Relative Humidity: 95
  • Wind: Calm, 10-min avg: Calm, gust: None
  • Barometer: 29.49 in Steady
  • Visibility: ½ mile
  • Snow Today: 1.3 in
  •   

Regional Weather Roundup
for Boston / Norton, MA

        
000
ASUS41 KBOX 141705
RWRBOX

REGIONAL WEATHER ROUNDUP
NATIONAL WEATHER SERVICE BOSTON/NORTON MA
100 PM EDT WED APR 14 2021

NOTE:  "FAIR" INDICATES FEW OR NO CLOUDS BELOW 12,000 FEET WITH NO 
SIGNIFICANT WEATHER AND/OR OBSTRUCTIONS TO VISIBILITY.

MAZALL-141800-
EASTERN MASSACHUSETTS
  
CITY           SKY/WX    TMP DP  RH WIND       PRES   REMARKS
BOSTON         MOSUNNY   51  40  65 E14       30.06F                  
BEVERLY        NOT AVBL                                               
LAWRENCE       PTSUNNY   56  40  55 E10       30.04F                  
BEDFORD        MOSUNNY   57  39  51 E10       30.02F                  
BLUE HILL        N/A     53  37  54 E12       30.01F                  
NORWOOD        SUNNY     58  39  49 NE13      30.02F                  
MARSHFIELD     SUNNY     48  39  71 VRB6      30.06S                  
PLYMOUTH       SUNNY     51  37  58 NE13      30.04F                  
TAUNTON          N/A    N/A N/A N/A MISG      30.01F                  
NEW BEDFORD    MOSUNNY   57  39  51 SE7       30.02F                  
$$

MAZALL-141800-
CAPE COD AND THE ISLANDS
  
CITY           SKY/WX    TMP DP  RH WIND       PRES   REMARKS
FALMOUTH       NOT AVBL                                               
HYANNIS        SUNNY     52  37  56 N8        30.02F                  
CHATHAM        SUNNY     49  34  56 NE14      30.05F                  
PROVINCETOWN   MOSUNNY   47  38  71 NE9       30.06                   
NANTUCKET      SUNNY     52  38  58 N12       30.03F                  
MARTHAS VNYRD  SUNNY     55  39  54 E9        30.03F                  
$$
 
MAZALL-141800-
CENTRAL AND WESTERN MASSACHUSETTS
  
CITY           SKY/WX    TMP DP  RH WIND       PRES   REMARKS
WORCESTER      SUNNY     58  41  53 VRB5      30.00F                  
FITCHBURG      SUNNY     60  40  47 VRB3      30.00F                  
ORANGE         SUNNY     64  42  44 VRB5      29.98F                  
SPRINGFIELD    PTSUNNY   65  43  44 E5        29.96F                  
WESTFIELD      SUNNY     66  44  45 VRB3      29.96F                  
NORTH ADAMS    MOSUNNY   69  37  30 VRB7      29.95F                  
PITTSFIELD     MOSUNNY   67  39  35 W12       29.94F                  
$$
 
RIZALL-141800-
RHODE ISLAND
  
CITY           SKY/WX    TMP DP  RH WIND       PRES   REMARKS
PROVIDENCE     MOSUNNY   56  42  59 S7        30.04F                  
NEWPORT        SUNNY     52  40  63 S10       30.04F                  
BLOCK ISLAND   SUNNY     51  41  68 S12       30.04F                  
SMITHFIELD     SUNNY     59  44  57 SE6       30.02F                  
WESTERLY       SUNNY     50  42  74 SE10      30.04F                  
$$
 
CTZALL-141800-
CONNECTICUT
  
CITY           SKY/WX    TMP DP  RH WIND       PRES   REMARKS
BRADLEY INTL   MOSUNNY   67  43  41 VRB6      29.97F                  
HARTFORD       MOSUNNY   66  43  43 CALM      29.97F                  
BRIDGEPORT     SUNNY     59  46  62 SW9       29.99F                  
DANBURY        MOSUNNY   70  42  36 E3        29.98F                  
GROTON         SUNNY     52  44  74 S13       30.02F                  
NEW HAVEN      SUNNY     59  46  62 S10       29.99F                  
CHESTER        FAIR      61  43  51 S10       30.00S                  
MERIDEN        MOSUNNY   70  41  34 VRB6      29.96F                  
WILLIMANTIC    SUNNY     62  43  49 SW7       29.99F                  
OXFORD         MOSUNNY   68  41  37 CALM      29.98F                  
$$

MEZ002-015-021-024-NHZ003-005-008-011-012-014-VTZ005-008-141800-
NORTHERN NEW ENGLAND
  
CITY           SKY/WX    TMP DP  RH WIND       PRES   REMARKS
PORTLAND ME    MOSUNNY   53  39  59 VRB6      30.04F                  
BANGOR ME      SUNNY     54  27  35 VRB6      30.02F                  
CONCORD NH     SUNNY     60  39  45 VRB3      30.00F                  
MANCHESTER NH  MOSUNNY   60  40  47 CALM      29.99F                  
NASHUA NH      SUNNY     61  41  47 SE10      30.01F                  
PORTSMOUTH NH  MOSUNNY   51  38  60 E7        30.06S                  
JAFFREY NH     PTSUNNY   63  41  44 VRB3      29.98F                  
KEENE NH       SUNNY     64  43  46 VRB3      29.97F                  
BURLINGTON VT  MOSUNNY   67  34  29 NW8       29.95F                  
MT. WASHINGTON NOT AVBL                                               
$$

NYZ052-076-141800-
EASTERN NEW YORK
  
CITY           SKY/WX    TMP DP  RH WIND       PRES   REMARKS
ALBANY         MOSUNNY   63  40  42 CALM      29.97F                  
NEW YORK CITY  PTSUNNY   70  37  29 W7        29.99F                  
$$
 
ANZALL-141800-
MARINE OBSERVATIONS
  
STATION/POSITION TIME  TEMP    WIND        PRES    VSBY  WAVE
                       AIR SEA DIR/SP/G                  HT/PER
                 (UTC) (F)     (DEG/KT/KT) (MB)    (MI)  (FT/S)
BOSTON BUOY      1650   44 45   80/  4/  6 1018.2F         6/ 8
BUZZARDS BAY     1600          100/  4/  4 1018.8F
NANTUCKET SOUND  1650      47                N/A           1
MASS BAY-STELLWA NOT AVBL
ISLE OF SHOALS   1600   43      90/ 11/ 11 1017.8F
S OF BLOCK IS    1656      45                N/A           3/13
$$

......................KEY.........................
  SKY/WX - SKY CONDITION/PRESENT WEATHER
  TMP    - TEMPERATURE IN FAHRENHEIT
  DWPT   - DEWPOINT IN FAHRENHEIT
  RH     - RELATIVE HUMIDITY IN PERCENT
  WIND   - DIRECTION AND SPEED IN MPH
  PRES   - MEAN SEA LEVEL PRESSURE IN INCHES OF HG
  WCI    - WIND CHILL INDEX
  VSB    - VISIBILITY IN MILES
  HX     - HEAT INDEX
  TC     - TEMPERATURE IN CELSIUS
  VRB    - VARIABLE WIND DIRECTION
  N/A    - NOT AVAILABLE
  
      

Other recent Regional Weather Roundups

Fri Apr 16, 9:04am

Fri Apr 16, 8:04am

Fri Apr 16, 7:04am

Fri Apr 16, 6:04am

Fri Apr 16, 5:04am

Fri Apr 16, 4:04am

Fri Apr 16, 3:04am

Fri Apr 16, 2:04am

Fri Apr 16, 1:04am

Fri Apr 16, 12:04am

Thu Apr 15, 11:05pm

Thu Apr 15, 10:04pm

Thu Apr 15, 9:04pm

Thu Apr 15, 8:04pm

Thu Apr 15, 7:05pm

Thu Apr 15, 6:04pm

Thu Apr 15, 5:05pm

Thu Apr 15, 4:04pm

Thu Apr 15, 3:05pm

Thu Apr 15, 2:04pm

Thu Apr 15, 1:05pm

Thu Apr 15, 12:04pm

Thu Apr 15, 11:04am

Thu Apr 15, 10:05am

Thu Apr 15, 9:04am

Thu Apr 15, 8:04am

Thu Apr 15, 7:04am

Thu Apr 15, 6:04am

Thu Apr 15, 5:04am

Thu Apr 15, 4:04am

Thu Apr 15, 3:04am

Thu Apr 15, 2:04am

Thu Apr 15, 1:04am

Thu Apr 15, 12:04am

Wed Apr 14, 11:04pm

Wed Apr 14, 10:04pm

Wed Apr 14, 9:04pm

Wed Apr 14, 8:04pm

Wed Apr 14, 7:04pm

Wed Apr 14, 6:04pm

Wed Apr 14, 5:05pm

Wed Apr 14, 4:04pm

Wed Apr 14, 3:05pm

Wed Apr 14, 2:04pm

Wed Apr 14, 12:04pm

Wed Apr 14, 11:04am

Wed Apr 14, 10:04am

Wed Apr 14, 9:04am

Wed Apr 14, 8:04am

Wed Apr 14, 7:04am

Wed Apr 14, 6:04am

Wed Apr 14, 5:04am

Wed Apr 14, 4:04am

Wed Apr 14, 3:04am

Wed Apr 14, 2:04am

Wed Apr 14, 1:04am

Wed Apr 14, 12:04am

Tue Apr 13, 11:04pm

Tue Apr 13, 10:05pm

Tue Apr 13, 9:05pm

Tue Apr 13, 8:05pm

Tue Apr 13, 7:04pm

Tue Apr 13, 6:04pm

Tue Apr 13, 5:05pm

Tue Apr 13, 4:04pm

Tue Apr 13, 3:04pm

Tue Apr 13, 2:05pm

Tue Apr 13, 1:04pm

Tue Apr 13, 12:05pm

Tue Apr 13, 11:05am

Tue Apr 13, 10:04am

Tue Apr 13, 9:04am

Tue Apr 13, 8:04am

Tue Apr 13, 7:04am

Tue Apr 13, 6:04am

Tue Apr 13, 5:04am

Tue Apr 13, 4:04am

Tue Apr 13, 3:04am

Tue Apr 13, 2:04am

Tue Apr 13, 1:04am

Tue Apr 13, 12:05am

Mon Apr 12, 11:04pm

Mon Apr 12, 10:04pm

Mon Apr 12, 9:04pm

Mon Apr 12, 8:04pm

Mon Apr 12, 7:05pm

Mon Apr 12, 6:04pm

Mon Apr 12, 5:04pm

Mon Apr 12, 4:04pm

Mon Apr 12, 3:05pm

Mon Apr 12, 2:04pm

Mon Apr 12, 1:05pm

Mon Apr 12, 12:04pm

Mon Apr 12, 11:04am

Mon Apr 12, 10:04am

Mon Apr 12, 9:04am

Mon Apr 12, 8:04am

Mon Apr 12, 7:04am

Mon Apr 12, 6:04am

Mon Apr 12, 5:04am

Mon Apr 12, 4:04am

Mon Apr 12, 3:04am

Mon Apr 12, 2:04am

Mon Apr 12, 1:05am

Mon Apr 12, 12:04am

Sun Apr 11, 11:04pm

Sun Apr 11, 10:04pm

Sun Apr 11, 9:04pm

Sun Apr 11, 8:04pm

Sun Apr 11, 7:04pm

Sun Apr 11, 6:05pm

Sun Apr 11, 5:05pm

Sun Apr 11, 4:04pm

Sun Apr 11, 3:05pm

Sun Apr 11, 2:05pm

Sun Apr 11, 1:05pm

Sun Apr 11, 12:04pm

Sun Apr 11, 11:05am

Sun Apr 11, 10:05am

Sun Apr 11, 9:04am

Sun Apr 11, 8:04am

Sun Apr 11, 7:04am

Sun Apr 11, 6:04am

Sun Apr 11, 5:04am

Sun Apr 11, 4:04am

Sun Apr 11, 3:04am

Sun Apr 11, 2:04am

Sun Apr 11, 1:05am

Sun Apr 11, 12:04am

Sat Apr 10, 11:05pm

Sat Apr 10, 10:04pm

Sat Apr 10, 9:04pm

Sat Apr 10, 8:04pm

Sat Apr 10, 7:05pm

Sat Apr 10, 6:04pm

Sat Apr 10, 5:04pm

Sat Apr 10, 4:04pm

Sat Apr 10, 3:04pm

Sat Apr 10, 2:05pm

Sat Apr 10, 1:04pm

Sat Apr 10, 12:04pm

Sat Apr 10, 11:04am

Sat Apr 10, 10:04am

Sat Apr 10, 9:04am

Sat Apr 10, 8:04am

Sat Apr 10, 7:04am

Sat Apr 10, 6:04am

Sat Apr 10, 5:04am

Sat Apr 10, 4:04am

Sat Apr 10, 3:04am

Sat Apr 10, 2:04am

Sat Apr 10, 1:05am

Sat Apr 10, 12:04am

Fri Apr 9, 11:04pm

Fri Apr 9, 10:05pm

Fri Apr 9, 9:04pm

Fri Apr 9, 8:05pm

Fri Apr 9, 7:05pm

Fri Apr 9, 6:04pm

Fri Apr 9, 5:04pm

Fri Apr 9, 4:05pm

Fri Apr 9, 3:05pm

Fri Apr 9, 2:04pm

Fri Apr 9, 1:04pm

Fri Apr 9, 12:04pm

Fri Apr 9, 11:05am

Fri Apr 9, 10:04am

Meta data:

ID: 152875d2-5407-4abc-bd7d-74e56ee0aa7b
Link: https://api.weather.gov/products/152875d2-5407-4abc-bd7d-74e56ee0aa7b